Other Public Products
Issued by NWS Grand Forks, ND

Home | Current Version | Previous Version | Graphics & Text | Print | Product List | Glossary On
Versions: 1 2 3 4 5 6 7 8 9 10 11 12 13 14 15 16 17 18 19 20 21 22 23 24 25 26 27 28 29 30 31 32 33 34 35 36 37 38 39 40 41 42 43 44 45 46 47 48 49 50
000
FPUS83 KFGF 252331
OPUFGF
PRAIRIE TO PINES WEATHER ROUNDUP
NATIONAL WEATHER SERVICE EASTERN NORTH DAKOTA/GRAND FORKS ND
500 PM CST TUE NOV 25 2014

 **SATELLITE DATA USED TO AUGMENT SKY COVER AT AUTOMATED STATIONS**
 *****  WEATHER ACROSS EASTERN NORTH DAKOTA  *****

CITY           SKY/WX    TMP DP  RH WIND       PRES   REMARKS
GRAND FORKS    CLOUDY    20  14  77 NE12      29.96R WCI   8
GRAND FORKS AF FLURRIES  19  16  86 NE12      29.96R WCI   7
GRAND CITY NWS   N/A     21 N/A N/A NE12        N/A  WCI   9
BUXTON           N/A     23  19  84 NE7         N/A  WCI  15
DEVILS LAKE    CLOUDY    18   9  68 E13       29.88R WCI   4
FARGO          CLOUDY    26  17  68 SE12      29.91S WCI  16
WAHPETON ARPT  CLOUDY    23  18  80 SE12      29.92S WCI  12
$$

 *****  WEATHER ACROSS CENTRAL AND WESTERN NORTH DAKOTA  *****

CITY           SKY/WX    TMP DP  RH WIND       PRES   REMARKS
JAMESTOWN      LGT SNOW  28  26  92 SE10      29.80R VSB 3/4 WCI  19
BISMARCK       CLOUDY    33  32  96 SW5       29.71S
MINOT          LGT SNOW  21  18  88 NE17      29.86R VSB 1   WCI   7
MINOT AFB      LGT SNOW  19  19 100 NE20      29.88R FOG     WCI   4
GARRISON         N/A     30  30 100 NE6       29.72R WCI  24
WILLISTON      CLOUDY    25  20  81 N21G26    29.91R WCI  11
DICKINSON      FLURRIES  34  28  79 NW22      29.71R WCI  22
HETTINGER      CLOUDY    35  28  75 NW24G35   29.75R WCI  23
$$

 *****  OTHER OBSERVATIONS NORTHEAST NORTH DAKOTA  *****

CITY           SKY/WX    TMP DP  RH WIND       PRES   REMARKS
WALHALLA       LGT SNOW  14  14 100 NE10      30.03R WCI   1
LANGDON        LGT SNOW  14   9  79 NE15      29.94R WCI  -1
CAVALIER       FLURRIES  16  10  79 N12       30.01R WCI   3
GRAFTON        CLOUDY    18  12  79 NE12      29.99R WCI   5
CANDO          LGT SNOW  18  14  86 NE12      29.93R WCI   5
FORT TOTTEN      N/A     18  15  86 E8        29.95  WCI   8
ROLLA          LGT SNOW  14  12  92 NE18      29.94R WCI  -3
RUGBY          LGT SNOW  18  16  93 NE23      29.89R WCI   0
 ***** THE ABOVE OBSERVATIONS ARE NON NWS ARE NOT QUALITY
        CONTROLLED AND MAY MIS-REPORT RAIN FOR SNOW...
$$

 *****  OTHER OBSERVATIONS SOUTHEAST NORTH DAKOTA *****

CITY           SKY/WX    TMP DP  RH WIND       PRES   REMARKS
COOPERSTOWN    NOT AVBL
VALLEY CITY    MIX PCPN  27  27 100 E12       29.85R WCI  16
OAKES            N/A     30  27  86 SE10      29.82S WCI  21
GWINNER        CLOUDY    30  25  80 SE16      29.85S WCI  19
SHEYENNE NWR     N/A     26  20  79 SE9       29.95  WCI  17
BUFFALO        NOT AVBL
WYNDMERE         N/A     27  21  80 SE10        N/A  WCI  17
 ***** THE ABOVE OBSERVATIONS ARE NON NWS ARE NOT QUALITY
       CONTROLLED AND MAY MIS-REPORT RAIN FOR SNOW...
$$

  *****  WEATHER ACROSS NORTHERN MINNESOTA  *****

CITY           SKY/WX    TMP DP  RH WIND       PRES   REMARKS
FLAG ISLAND    NOT AVBL
WARROAD        LGT SNOW  16  12  86 N3        29.98S
ROSEAU         CLOUDY    18  10  73 NE7       29.98R WCI   8
HALLOCK        MOCLDY    18  10  73 N9        30.00R WCI   6
THF RVR FALLS  CLOUDY    19  16  86 E6        29.96R WCI  11
HALSTAD          N/A     25  18  74 E5          N/A  WCI  19
FOSSTON        CLOUDY    19  14  79 NE6       29.94R WCI  11
BAUDETTE       FLURRIES  17  12  80 NE3       29.96R
WASKISH        CLOUDY    18  12  79 CALM      29.96S
CROOKSTON      CLOUDY    21  16  79 E12       29.96S WCI   9
$$
  *****  WEATHER ACROSS CENTRAL AND WEST MINNESOTA  *****

CITY           SKY/WX    TMP DP  RH WIND       PRES   REMARKS
BEMIDJI        FAIR      19  11  71 E5        29.93R WCI  12
PARK RAPIDS    CLOUDY    20  11  68 SE8       29.92F WCI  10
WADENA         FAIR      18  10  73 SE5       29.93R WCI  11
DETROIT LAKES  FAIR      23  16  74 SE7       29.91F WCI  15
MOORHEAD       CLOUDY    25  19  80 SE6       29.92S WCI  18
FERGUS FALLS   FAIR      23  12  63 SE9       29.95S WCI  13
ELBOW LAKE       N/A     21  13  70 SE8       29.92S WCI  12
MORRIS MN      FAIR      23  18  80 SE10      29.91S WCI  12
STAPLES        FAIR      18   9  68 CALM      29.94S
WHEATON        MOCLDY    21  18  86 E10       29.93S WCI  10
$$
  *****  WEATHER ELSEWHERE ACROSS MINNESOTA  *****

CITY           SKY/WX    TMP DP  RH WIND       PRES   REMARKS
DULUTH         FAIR      17   6  62 W7        29.96R WCI   8
INTRNTL FALLS  CLOUDY    14   7  73 CALM      29.96R
ELY            FAIR       9   7  92 CALM      29.96R
CLOQUET        CLOUDY    18   9  68 S3        29.98R
BRAINERD       CLOUDY    18   7  62 S5        29.97S WCI  11
HIBBING        CLOUDY    20   1  43 S5        29.96R WCI  13
ALEXANDRIA     FAIR      20  11  68 SE10      29.93F WCI   9
SAINT CLOUD    CLOUDY    20  10  65 SE6       30.00S WCI  12
MINNEAPOLIS    CLOUDY    23  13  65 SE6       30.03F WCI  16
$$

  *****  WEATHER ACROSS SOUTH DAKOTA  *****

CITY           SKY/WX    TMP DP  RH WIND       PRES   REMARKS
SIOUX FALLS    CLOUDY    35  23  61 SE9       29.87F
BROOKINGS      NOT AVBL
WATERTOWN      FAIR      31  23  72 SE8       29.84F WCI  23
HURON          CLOUDY    35  26  69 SE7       29.81F
SISSETON         N/A     27  21  78 SE10      29.88S WCI  17
ABERDEEN       LGT SNOW  32  28  85 SE9       29.81F FOG     WCI  24
MITCHELL       CLOUDY    38  26  62 SE12      29.82F
PIERRE         LGT SNOW  34  30  85 W6        29.77R FOG
MOBRIDGE       LGT SNOW  33  32  96 S7        29.72R FOG
RAPID CITY     CLOUDY    36  28  73 NW23G35   29.83R
$$

  *****  SOME WEATHER IN NEARBY STATES *****

CITY           SKY/WX    TMP DP  RH WIND       PRES   REMARKS
GLASGOW MT     MOCLDY    27  22  81 N20       30.01R HAZE    WCI  13
GREAT FALLS MT CLOUDY    32  27  81 SW7       30.11R
CHEYENNE WY    PTCLDY    41  22  46 W30G47    29.85R
SCOTTSBLUFF NE LGT RAIN  36  32  85 NW14      29.89R
OMAHA NE       CLOUDY    39  25  57 SE12      29.97F
DES MOINES IA  FAIR      33   9  36 S7        30.06S
DAVENPORT IA   FAIR      19  13  77 CALM      30.14F
CHICAGO IL     FAIR      22  16  78 W9        30.14R WCI  12
EAU CLAIRE WI  CLOUDY    22  13  68 CALM      30.05F
LA CROSSE WI   CLOUDY    25  13  60 S5        30.10R WCI  19
$$

  *****  SOME NATIONAL WEATHER *****

CITY           SKY/WX    TMP DP  RH WIND       PRES   REMARKS
LA GUARDIA NY  CLOUDY    53  28  38 SW8       30.04R
RALEIGH NC     LGT RAIN  54  40  59 N3        30.07F
ATLANTA GA     MOCLDY    56  29  35 NW7       30.02R
NEW ORLEANS LA CLOUDY    54  33  45 N8        30.14F
OKLAHOMA CITY  FAIR      49  25  39 S8        30.10F
ALBUQUERQUE NM PTCLDY    49   4  16 N9        30.27F
SALT LAKE CITY MOCLDY    44  26  49 S12       30.31S
LOS ANGELES CA SUNNY     72  29  20 W10       30.27S
BOISE ID       MOCLDY    54  42  64 NW8       30.25R
SEATTLE WA     LGT RAIN  53  51  93 SW8       30.19S FOG
$$

*** WEATHER ACROSS MANITOBA...SASKATCHEWAN AND ONTARIO ***
                ***ONTARIO***

CITY           SKY/WX    TMP DP  RH WIND       PRES   REMARKS
GERALDTON      FLURRIES  12   9  85 W5        29.93R WCI   4
THUNDER BAY    PTCLDY    12   7  79 W3        30.01R
SIOUX LOOKOUT  MOCLDY    10   3  72 NW6       29.96R WCI   1
TORONTO        CLOUDY    34  25  69 W14G21    30.04R WCI  24
BIG TROUT LK   CLEAR    -15 -22  70 NW6       30.01R WCI -29
PICKLE LAKE    CRYSTALS   0  -6  78 W3        29.94R
DRYDEN         LGT SNOW  12   7  79 NW3       29.96R
KENORA         LGT SNOW  10   7  85 N3        29.98R
$$
                *** MANITOBA***

CITY           SKY/WX    TMP DP  RH WIND       PRES   REMARKS
BRANDON        FLURRIES   9   3  78 NE15      30.04R WCI  -8
DAUPHIN        MOCLDY     1  -4  78 N13       30.15R WCI -16
ISLAND LAKE    CLEAR    -13 -24  58 NW8       30.10R WCI -30
PILOT MOUND      N/A     10   7  85 NE9         N/A  WCI  -2
THE PAS        PTCLDY    -8 -15  71 NW8       30.23R WCI -23
THOMPSON       CLEAR    -17 -24  70 W7        30.16R WCI -33
WINNIPEG       LGT SNOW   9   3  78 N17       30.08R WCI -10
LYNN LAKE      CLEAR    -18 -24  76 NW10      30.17R WCI -39
CHURCHILL      CRYSTALS -11 -17  77 NW17G24   30.10R BLWGSNOWWCI -35
GILLAM         CLEAR    -17 -24  70 NW12      30.12R WCI -38
$$
                ***SASKATCHEWAN***

CITY           SKY/WX    TMP DP  RH WIND       PRES   REMARKS
ESTEVAN        LGT SNOW  18  12  79 NE16G24   29.96R DRFTSNOWWCI   3
KINDERSLEY     CLOUDY    14  10  85 NE6       30.11  WCI   5
LLOYDMINSTER   FLURRIES   9   5  85 NE3       30.15R
PRINCE ALBERT  LGT SNOW   5   0  78 CALM      30.20R
REGINA         MOCLDY    14   9  79 N9        30.06R WCI   2



USA.gov is the U.S. government's official web portal to all federal, state and local government web resources and services.